Voltar ao catálogo

STARLINK-1168

AtivoComunicaçõesVLEO
NORAD 45072·PAYLOAD·🇺🇸 United States

Lançado Jan 29, 2020 de Cape Canaveral Space Force Station

Loading…

Próximas Passagens (próximas 24 horas)

TLE

AtualizadoSource: CelesTrak SupGP

Época: Sep 14, 2026, 21:21 UTC

1 45072C 20006AE  26257.89006944  .00060206  00000+0  13090-2 0  2573
2 45072  53.1527  91.5301 0000682 141.2507 268.9906 15.43716013    10

Acompanhe STARLINK-1168 em tempo real com AllMySat

Download on the App Store